Time,TemperatureF,DewpointF,PressureIn,WindDirection,WindDirectionDegrees,WindSpeedMPH,WindSpeedGustMPH,Humidity,HourlyPrecipIn,Conditions,Clouds,dailyrainin,SoftwareType,DateUTC
2013-01-05 00:24:00,61.8,62.0,30.16,NNW,347,0.0,-999.0,100,-99.99,,,0.00,weatherlink.com 1.10,2013-01-05 05:24:00,
2013-01-05 00:39:00,61.6,62.0,30.16,NW,319,0.0,-999.0,100,-99.99,,,0.00,weatherlink.com 1.10,2013-01-05 05:39:00,
2013-01-05 00:54:00,61.5,62.0,30.16,NW,325,5.0,-999.0,100,-99.99,,,0.00,weatherlink.com 1.10,2013-01-05 05:54:00,
2013-01-05 01:09:00,61.3,61.0,30.16,WNW,286,3.0,-999.0,100,-99.99,,,0.00,weatherlink.com 1.10,2013-01-05 06:09:00,
2013-01-05 01:24:00,61.3,61.0,30.16,NW,326,0.0,-999.0,100,-99.99,,,0.00,weatherlink.com 1.10,2013-01-05 06:24:00,
2013-01-05 01:39:00,61.5,62.0,30.16,NNE,17,2.0,-999.0,100,-99.99,,,0.00,weatherlink.com 1.10,2013-01-05 06:39:00,
2013-01-05 01:54:00,61.5,62.0,30.16,WNW,295,4.0,-999.0,100,-99.99,,,0.00,weatherlink.com 1.10,2013-01-05 06:54:00,
2013-01-05 02:09:00,61.6,62.0,30.16,North,0,1.0,-999.0,100,-99.99,,,0.00,weatherlink.com 1.10,2013-01-05 07:09:00,
2013-01-05 02:24:00,61.6,62.0,30.15,North,0,6.0,-999.0,100,-99.99,,,0.00,weatherlink.com 1.10,2013-01-05 07:24:00,
2013-01-05 02:39:00,61.5,62.0,30.15,North,352,0.0,-999.0,100,-99.99,,,0.00,weatherlink.com 1.10,2013-01-05 07:39:00,
2013-01-05 02:54:00,61.5,62.0,30.16,NW,316,5.0,-999.0,100,-99.99,,,0.00,weatherlink.com 1.10,2013-01-05 07:54:00,
2013-01-05 03:09:00,61.5,62.0,30.15,NW,322,0.0,-999.0,100,-99.99,,,0.00,weatherlink.com 1.10,2013-01-05 08:09:00,
2013-01-05 03:25:00,61.5,62.0,30.15,NNW,341,0.0,-999.0,100,-99.99,,,0.00,weatherlink.com 1.10,2013-01-05 08:25:00,
2013-01-05 03:40:00,61.6,62.0,30.14,NW,319,0.0,-999.0,100,-99.99,,,0.00,weatherlink.com 1.10,2013-01-05 08:40:00,
2013-01-05 03:55:00,61.6,62.0,30.14,NW,324,0.0,-999.0,100,-99.99,,,0.00,weatherlink.com 1.10,2013-01-05 08:55:00,
2013-01-05 04:10:00,61.8,62.0,30.14,NW,323,0.0,-999.0,100,-99.99,,,0.00,weatherlink.com 1.10,2013-01-05 09:10:00,
2013-01-05 04:25:00,61.8,62.0,30.14,NNW,333,1.0,-999.0,100,-99.99,,,0.00,weatherlink.com 1.10,2013-01-05 09:25:00,
2013-01-05 04:40:00,62.0,62.0,30.14,NW,308,2.0,-999.0,100,-99.99,,,0.00,weatherlink.com 1.10,2013-01-05 09:40:00,
2013-01-05 04:55:00,62.0,62.0,30.14,NW,321,1.0,-999.0,100,-99.99,,,0.00,weatherlink.com 1.10,2013-01-05 09:55:00,
2013-01-05 05:10:00,62.3,62.0,30.14,WNW,300,0.0,-999.0,100,-99.99,,,0.00,weatherlink.com 1.10,2013-01-05 10:10:00,
2013-01-05 05:25:00,62.1,62.0,30.15,NNW,338,0.0,-999.0,100,-99.99,,,0.00,weatherlink.com 1.10,2013-01-05 10:25:00,
2013-01-05 05:40:00,62.0,62.0,30.15,North,358,0.0,-999.0,100,-99.99,,,0.00,weatherlink.com 1.10,2013-01-05 10:40:00,
2013-01-05 06:10:00,62.0,62.0,30.16,North,0,0.0,-999.0,100,-99.99,,,0.00,weatherlink.com 1.10,2013-01-05 11:10:00,
2013-01-05 06:25:00,62.3,62.0,30.16,NW,321,8.0,-999.0,100,-99.99,,,0.00,weatherlink.com 1.10,2013-01-05 11:25:00,
2013-01-05 06:40:00,62.6,63.0,30.16,WNW,295,4.0,-999.0,100,-99.99,,,0.00,weatherlink.com 1.10,2013-01-05 11:40:00,
2013-01-05 06:55:00,62.7,63.0,30.17,North,0,7.0,-999.0,100,-99.99,,,0.00,weatherlink.com 1.10,2013-01-05 11:55:00,
2013-01-05 07:10:00,62.4,62.0,30.17,NNW,338,3.0,-999.0,100,-99.99,,,0.00,weatherlink.com 1.10,2013-01-05 12:10:00,
2013-01-05 07:25:00,62.6,63.0,30.18,NNW,335,0.0,-999.0,100,-99.99,,,0.00,weatherlink.com 1.10,2013-01-05 12:25:00,
2013-01-05 07:55:00,62.9,63.0,30.19,NW,323,0.0,-999.0,100,-99.99,,,0.00,weatherlink.com 1.10,2013-01-05 12:55:00,
2013-01-05 08:10:00,62.9,63.0,30.19,NNW,333,6.0,-999.0,100,-99.99,,,0.00,weatherlink.com 1.10,2013-01-05 13:10:00,
2013-01-05 08:25:00,62.9,63.0,30.19,NNW,328,0.0,-999.0,100,-99.99,,,0.00,weatherlink.com 1.10,2013-01-05 13:25:00,
2013-01-05 08:41:00,63.1,63.0,30.19,NNW,332,0.0,-999.0,100,-99.99,,,0.00,weatherlink.com 1.10,2013-01-05 13:41:00,
2013-01-05 08:56:00,62.9,63.0,30.19,NNW,340,6.0,-999.0,100,-99.99,,,0.00,weatherlink.com 1.10,2013-01-05 13:56:00,
2013-01-05 09:11:00,64.0,64.0,30.19,North,349,1.0,-999.0,100,-99.99,,,0.00,weatherlink.com 1.10,2013-01-05 14:11:00,
2013-01-05 09:26:00,66.0,66.0,30.19,North,353,0.0,-999.0,100,-99.99,,,0.00,weatherlink.com 1.10,2013-01-05 14:26:00,
2013-01-05 09:41:00,67.3,67.0,30.19,ENE,70,2.0,-999.0,100,-99.99,,,0.00,weatherlink.com 1.10,2013-01-05 14:41:00,
2013-01-05 09:56:00,68.3,68.0,30.19,North,358,0.0,-999.0,100,-99.99,,,0.00,weatherlink.com 1.10,2013-01-05 14:56:00,
2013-01-05 10:11:00,69.3,69.0,30.19,North,10,6.0,-999.0,100,-99.99,,,0.00,weatherlink.com 1.10,2013-01-05 15:11:00,
2013-01-05 10:26:00,69.4,69.0,30.19,North,1,3.0,-999.0,100,-99.99,,,0.00,weatherlink.com 1.10,2013-01-05 15:26:00,
2013-01-05 10:41:00,70.1,70.0,30.19,North,1,0.0,-999.0,100,-99.99,,,0.00,weatherlink.com 1.10,2013-01-05 15:41:00,
2013-01-05 10:56:00,70.6,71.0,30.19,NNW,336,1.0,-999.0,100,-99.99,,,0.00,weatherlink.com 1.10,2013-01-05 15:56:00,
2013-01-05 11:11:00,71.8,72.0,30.19,North,354,0.0,-999.0,100,-99.99,,,0.00,weatherlink.com 1.10,2013-01-05 16:11:00,
2013-01-05 11:26:00,72.7,73.0,30.18,NNW,348,0.0,-999.0,100,-99.99,,,0.00,weatherlink.com 1.10,2013-01-05 16:26:00,
2013-01-05 11:41:00,72.8,73.0,30.17,NNE,26,0.0,-999.0,100,-99.99,,,0.00,weatherlink.com 1.10,2013-01-05 16:41:00,
2013-01-05 11:56:00,73.7,74.0,30.17,North,4,2.0,-999.0,100,-99.99,,,0.00,weatherlink.com 1.10,2013-01-05 16:56:00,
2013-01-05 12:11:00,73.9,74.0,30.16,North,6,2.0,-999.0,100,-99.99,,,0.00,weatherlink.com 1.10,2013-01-05 17:11:00,
2013-01-05 12:26:00,74.4,74.0,30.14,SE,146,0.0,-999.0,100,-99.99,,,0.00,weatherlink.com 1.10,2013-01-05 17:26:00,
2013-01-05 12:43:00,74.7,75.0,30.14,NNE,22,6.0,-999.0,100,-99.99,,,0.00,weatherlink.com 1.10,2013-01-05 17:43:00,
2013-01-05 12:56:00,74.0,74.0,30.13,NNE,13,6.0,-999.0,100,-99.99,,,0.00,weatherlink.com 1.10,2013-01-05 17:56:00,
2013-01-05 13:11:00,74.0,74.0,30.12,North,1,4.0,-999.0,100,-99.99,,,0.00,weatherlink.com 1.10,2013-01-05 18:11:00,
2013-01-05 13:26:00,73.9,74.0,30.12,North,0,1.0,-999.0,100,-99.99,,,0.00,weatherlink.com 1.10,2013-01-05 18:26:00,
2013-01-05 13:41:00,74.2,74.0,30.11,North,11,4.0,-999.0,100,-99.99,,,0.00,weatherlink.com 1.10,2013-01-05 18:41:00,
2013-01-05 13:56:00,76.0,76.0,30.11,NNE,15,2.0,-999.0,100,-99.99,,,0.00,weatherlink.com 1.10,2013-01-05 18:56:00,
2013-01-05 14:11:00,77.0,77.0,30.11,North,0,2.0,-999.0,100,-99.99,,,0.00,weatherlink.com 1.10,2013-01-05 19:11:00,
2013-01-05 14:26:00,77.4,77.0,30.10,NE,38,0.0,-999.0,100,-99.99,,,0.00,weatherlink.com 1.10,2013-01-05 19:26:00,
2013-01-05 14:41:00,77.7,78.0,30.10,North,358,2.0,-999.0,100,-99.99,,,0.00,weatherlink.com 1.10,2013-01-05 19:41:00,
2013-01-05 14:56:00,77.4,77.0,30.11,North,358,2.0,-999.0,100,-99.99,,,0.00,weatherlink.com 1.10,2013-01-05 19:56:00,
2013-01-05 15:11:00,77.2,77.0,30.11,ESE,115,2.0,-999.0,100,-99.99,,,0.00,weatherlink.com 1.10,2013-01-05 20:11:00,
2013-01-05 15:26:00,75.8,76.0,30.10,ENE,67,0.0,-999.0,100,-99.99,,,0.00,weatherlink.com 1.10,2013-01-05 20:26:00,
2013-01-05 15:41:00,74.9,75.0,30.11,ENE,66,0.0,-999.0,100,-99.99,,,0.00,weatherlink.com 1.10,2013-01-05 20:41:00,
2013-01-05 15:56:00,74.4,74.0,30.11,North,353,0.0,-999.0,100,-99.99,,,0.00,weatherlink.com 1.10,2013-01-05 20:56:00,
2013-01-05 16:11:00,73.9,74.0,30.11,North,0,1.0,-999.0,100,-99.99,,,0.00,weatherlink.com 1.10,2013-01-05 21:11:00,
2013-01-05 16:26:00,73.3,73.0,30.11,North,3,0.0,-999.0,100,-99.99,,,0.00,weatherlink.com 1.10,2013-01-05 21:26:00,
2013-01-05 16:41:00,73.3,73.0,30.11,North,2,0.0,-999.0,100,-99.99,,,0.00,weatherlink.com 1.10,2013-01-05 21:41:00,
2013-01-05 16:56:00,72.5,73.0,30.11,North,354,3.0,-999.0,100,-99.99,,,0.00,weatherlink.com 1.10,2013-01-05 21:56:00,
2013-01-05 17:11:00,71.8,72.0,30.11,NNW,345,3.0,-999.0,100,-99.99,,,0.00,weatherlink.com 1.10,2013-01-05 22:11:00,
2013-01-05 17:26:00,71.5,72.0,30.11,NW,309,0.0,-999.0,100,-99.99,,,0.00,weatherlink.com 1.10,2013-01-05 22:26:00,
2013-01-05 17:41:00,70.6,71.0,30.11,NW,316,0.0,-999.0,100,-99.99,,,0.00,weatherlink.com 1.10,2013-01-05 22:41:00,
2013-01-05 17:56:00,70.6,71.0,30.12,NNW,345,0.0,-999.0,100,-99.99,,,0.00,weatherlink.com 1.10,2013-01-05 22:56:00,
2013-01-05 18:11:00,70.3,70.0,30.12,North,358,0.0,-999.0,100,-99.99,,,0.00,weatherlink.com 1.10,2013-01-05 23:11:00,
2013-01-05 18:26:00,69.4,69.0,30.13,West,276,0.0,-999.0,100,-99.99,,,0.00,weatherlink.com 1.10,2013-01-05 23:26:00,
2013-01-05 18:41:00,68.1,68.0,30.13,WNW,284,0.0,-999.0,100,-99.99,,,0.00,weatherlink.com 1.10,2013-01-05 23:41:00,
2013-01-05 18:56:00,67.9,68.0,30.13,West,262,0.0,-999.0,100,-99.99,,,0.00,weatherlink.com 1.10,2013-01-05 23:56:00,
2013-01-05 19:11:00,68.1,68.0,30.14,NW,304,0.0,-999.0,100,-99.99,,,0.00,weatherlink.com 1.10,2013-01-06 00:11:00,
2013-01-05 19:26:00,68.6,69.0,30.14,NNW,330,0.0,-999.0,100,-99.99,,,0.00,weatherlink.com 1.10,2013-01-06 00:26:00,
2013-01-05 19:41:00,68.6,69.0,30.14,NNW,330,0.0,-999.0,100,-99.99,,,0.00,weatherlink.com 1.10,2013-01-06 00:41:00,
2013-01-05 19:56:00,68.8,69.0,30.14,SSW,199,0.0,-999.0,100,-99.99,,,0.00,weatherlink.com 1.10,2013-01-06 00:56:00,
2013-01-05 20:11:00,69.3,69.0,30.14,ESE,110,0.0,-999.0,100,-99.99,,,0.00,weatherlink.com 1.10,2013-01-06 01:11:00,
2013-01-05 20:26:00,69.3,69.0,30.14,ENE,71,0.0,-999.0,100,-99.99,,,0.00,weatherlink.com 1.10,2013-01-06 01:26:00,
2013-01-05 20:41:00,69.3,69.0,30.14,ENE,72,0.0,-999.0,100,-99.99,,,0.00,weatherlink.com 1.10,2013-01-06 01:41:00,
2013-01-05 20:56:00,69.3,69.0,30.15,NW,309,2.0,-999.0,100,-99.99,,,0.00,weatherlink.com 1.10,2013-01-06 01:56:00,
2013-01-05 21:12:00,69.1,69.0,30.15,WNW,302,0.0,-999.0,100,-99.99,,,0.00,weatherlink.com 1.10,2013-01-06 02:12:00,
2013-01-05 21:27:00,69.3,69.0,30.15,North,3,1.0,-999.0,100,-99.99,,,0.00,weatherlink.com 1.10,2013-01-06 02:27:00,
2013-01-05 21:42:00,68.9,69.0,30.15,North,354,6.0,-999.0,100,-99.99,,,0.00,weatherlink.com 1.10,2013-01-06 02:42:00,
2013-01-05 21:57:00,68.4,68.0,30.15,North,358,1.0,-999.0,100,-99.99,,,0.00,weatherlink.com 1.10,2013-01-06 02:57:00,
2013-01-05 22:12:00,68.3,68.0,30.14,North,358,0.0,-999.0,100,-99.99,,,0.00,weatherlink.com 1.10,2013-01-06 03:12:00,
2013-01-05 22:27:00,68.3,68.0,30.14,NNE,20,0.0,-999.0,100,-99.99,,,0.00,weatherlink.com 1.10,2013-01-06 03:27:00,
2013-01-05 22:42:00,68.6,69.0,30.14,NNE,16,0.0,-999.0,100,-99.99,,,0.00,weatherlink.com 1.10,2013-01-06 03:42:00,
2013-01-05 22:57:00,68.4,68.0,30.13,ENE,64,0.0,-999.0,100,-99.99,,,0.00,weatherlink.com 1.10,2013-01-06 03:57:00,
2013-01-05 23:12:00,68.1,68.0,30.13,NE,39,0.0,-999.0,100,-99.99,,,0.00,weatherlink.com 1.10,2013-01-06 04:12:00,
2013-01-05 23:27:00,67.9,68.0,30.13,North,0,0.0,-999.0,100,-99.99,,,0.00,weatherlink.com 1.10,2013-01-06 04:27:00,
2013-01-05 23:42:00,67.9,68.0,30.13,ENE,71,0.0,-999.0,100,-99.99,,,0.00,weatherlink.com 1.10,2013-01-06 04:42:00,
2013-01-05 23:57:00,67.6,68.0,30.12,ENE,71,0.0,-999.0,100,-99.99,,,0.00,weatherlink.com 1.10,2013-01-06 04:57:00,